EW1587 Weather Reports


time (UTC)temp
F
wind
direction
speed
knots
gust
knots
rain 1hr
in
rain 24hr
in
rain mn
in
humidity
%
barometer
mb
20260507060533 34 276 0.0 0.9 0.00 0.00 0.00 78 1015.5
20260507060038 34 276 0.0 0.9 0.00 0.00 0.00 78 1015.6
20260507055532 34 283 0.0 0.9 0.00 0.00 0.00 78 1015.7
20260507055033 34 285 0.0 0.9 0.00 0.00 0.00 78 1015.6
20260507054537 34 285 0.0 0.9 0.00 0.00 0.00 77 1015.6
20260507054030 35 285 0.0 0.9 0.00 0.00 0.00 77 1015.7
20260507053529 35 290 0.0 0.9 0.00 0.00 0.00 77 1015.7
20260507053028 35 333 0.0 0.0 0.00 0.00 0.00 75 1015.8
20260507052527 35 333 0.0 0.0 0.00 0.00 0.00 73 1015.8
20260507052026 35 333 0.0 0.0 0.00 0.00 0.00 70 1015.8
20260507051524 36 333 0.0 0.0 0.00 0.00 0.00 68 1015.9
20260507051024 36 333 0.0 0.9 0.00 0.00 0.00 68 1015.9
20260507050522 36 333 0.0 1.7 0.00 0.00 0.00 68 1015.9
20260507050026 36 311 0.0 0.9 0.00 0.00 0.00 68 1015.9
20260507045521 36 311 0.0 0.9 0.00 0.00 0.00 67 1016.0
20260507045020 37 318 0.0 0.9 0.00 0.00 0.00 67 1015.9
20260507044521 37 295 0.0 0.9 0.00 0.00 0.00 66 1016.0
20260507044020 37 295 0.0 0.9 0.00 0.00 0.00 66 1016.0
20260507043520 37 299 0.0 0.9 0.00 0.00 0.00 66 1016.1
20260507043023 37 288 0.0 0.0 0.00 0.00 0.00 66 1016.0
20260507042519 37 288 0.0 0.9 0.00 0.00 0.00 66 1016.0
20260507042019 37 288 0.0 0.9 0.00 0.00 0.00 66 1016.1
20260507041519 37 288 0.0 0.9 0.00 0.00 0.00 66 1016.1
20260507041018 37 315 0.0 0.9 0.00 0.00 0.00 66 1016.1
20260507040519 37 315 0.0 0.9 0.00 0.00 0.00 65 1016.2
20260507040018 38 9 0.0 0.0 0.00 0.00 0.00 64 1016.2
20260507035518 38 10 0.0 0.0 0.00 0.00 0.00 63 1016.3
20260507035018 38 10 0.0 0.0 0.00 0.00 0.00 62 1016.3
20260507034520 39 10 0.0 0.9 0.00 0.00 0.00 61 1016.2
20260507034017 39 10 0.0 0.9 0.00 0.00 0.00 61 1016.2
20260507033517 39 11 0.0 0.9 0.00 0.00 0.00 60 1016.2
20260507033016 39 315 0.0 0.9 0.00 0.00 0.00 60 1016.3
20260507032516 39 330 0.0 0.9 0.00 0.00 0.00 60 1016.3
20260507032015 39 312 0.0 0.9 0.00 0.00 0.00 60 1016.3
20260507031515 39 307 0.0 0.9 0.00 0.00 0.00 60 1016.3
20260507031016 39 308 0.0 0.9 0.00 0.00 0.00 60 1016.3
20260507030516 39 316 0.0 0.9 0.00 0.00 0.00 60 1016.4
20260507030019 39 339 0.0 0.9 0.00 0.00 0.00 60 1016.3
20260507025515 39 339 0.0 0.0 0.00 0.00 0.00 61 1016.4
20260507025015 39 311 0.0 0.0 0.00 0.00 0.00 61 1016.4
20260507024515 39 311 0.0 0.0 0.00 0.00 0.00 61 1016.4
20260507024017 39 311 0.0 0.0 0.00 0.00 0.00 60 1016.3
20260507023516 39 311 0.0 0.0 0.00 0.00 0.00 60 1016.4
20260507023014 39 311 0.0 0.0 0.00 0.00 0.00 59 1016.4
20260507022514 39 311 0.0 0.9 0.00 0.00 0.00 57 1016.4
20260507022017 39 311 0.0 0.9 0.00 0.00 0.00 57 1016.4
20260507021514 39 307 0.0 0.9 0.00 0.00 0.00 56 1016.5
20260507021013 40 316 0.0 1.7 0.00 0.00 0.00 56 1016.4
20260507020514 40 319 0.0 1.7 0.00 0.00 0.00 55 1016.3
20260507020014 40 313 0.0 1.7 0.00 0.00 0.00 55 1016.3
20260507015513 40 328 0.0 3.5 0.00 0.00 0.00 55 1016.3
20260507015013 40 6 0.9 3.5 0.00 0.00 0.00 55 1016.3
20260507014519 40 333 0.9 4.3 0.00 0.00 0.00 55 1016.3
20260507014013 40 354 0.9 5.2 0.00 0.00 0.00 55 1016.4
20260507013512 41 311 0.9 4.3 0.00 0.00 0.00 54 1016.3
20260507013028 41 278 1.7 5.2 0.00 0.00 0.00 54 1016.4
20260507012512 41 297 0.9 5.2 0.00 0.00 0.00 54 1016.4
20260507012012 41 304 0.0 4.3 0.00 0.00 0.00 54 1016.3
20260507011514 41 309 0.9 4.3 0.00 0.00 0.00 54 1016.3
20260507011011 41 309 0.0 2.6 0.00 0.00 0.00 53 1016.3
20260507010512 41 26 0.0 2.6 0.00 0.00 0.00 52 1016.4
20260507010018 41 321 0.0 5.2 0.00 0.00 0.00 52 1016.4
20260507005512 41 343 0.9 5.2 0.00 0.00 0.00 51 1016.3
20260507005011 42 47 0.9 6.1 0.00 0.00 0.00 51 1016.4
20260507004512 42 23 1.7 6.1 0.00 0.00 0.00 51 1016.5
20260507004011 42 323 1.7 6.1 0.00 0.00 0.00 52 1016.5
20260507003511 42 335 0.9 7.0 0.00 0.00 0.00 52 1016.5
20260507003010 42 336 2.6 7.0 0.00 0.00 0.00 50 1016.4
20260507002515 42 9 2.6 7.0 0.00 0.00 0.00 50 1016.5
20260507002009 42 12 2.6 7.0 0.00 0.00 0.00 50 1016.5
20260507001510 43 334 1.7 9.6 0.00 0.00 0.00 51 1016.6
20260507001010 43 275 4.3 9.6 0.00 0.00 0.00 50 1016.6
20260507000509 43 340 2.6 7.8 0.00 0.00 0.00 49 1016.6
20260507000008 43 259 2.6 7.8 0.00 0.00 0.00 49 1016.7
20260506235508 43 322 2.6 7.8 0.00 0.00 0.00 50 1016.7
20260506235007 42 332 2.6 9.6 0.00 0.00 0.00 51 1016.8
20260506234507 42 316 0.9 9.6 0.00 0.00 0.00 51 1016.8
20260506234011 42 337 3.5 10.4 0.00 0.00 0.00 50 1016.8
20260506233507 42 324 5.2 11.3 0.00 0.00 0.00 52 1016.9
20260506233008 42 295 7.8 14.8 0.00 0.00 0.00 51 1016.9
20260506232505 42 307 5.2 15.6 0.00 0.00 0.00 52 1017.0
20260506232005 42 293 9.6 15.6 0.00 0.00 0.00 51 1016.9
20260506231505 42 285 10.4 15.6 0.00 0.00 0.00 52 1017.0
20260506231006 42 264 7.0 14.8 0.00 0.00 0.00 52 1017.0
20260506230507 42 283 7.8 14.8 0.00 0.00 0.00 51 1016.9
20260506230009 42 290 8.7 14.8 0.00 0.00 0.00 51 1017.0
20260506225506 42 287 6.1 13.0 0.00 0.00 0.00 52 1017.0
20260506225006 43 242 4.3 13.0 0.00 0.00 0.00 51 1017.1
20260506224505 43 281 7.8 15.6 0.00 0.00 0.00 52 1017.0
20260506224004 43 290 8.7 15.6 0.00 0.00 0.00 50 1016.9
20260506223504 43 287 3.5 10.4 0.00 0.00 0.00 50 1017.0
20260506223004 43 359 5.2 10.4 0.00 0.00 0.00 50 1017.0
20260506222504 43 269 5.2 11.3 0.00 0.00 0.00 50 1017.0
20260506222004 43 291 4.3 12.2 0.00 0.00 0.00 50 1017.0
20260506221504 43 225 7.0 14.8 0.00 0.00 0.00 50 1016.9
20260506221003 43 295 5.2 14.8 0.00 0.00 0.00 50 1016.9
20260506220504 43 311 5.2 14.8 0.00 0.00 0.00 51 1016.9
20260506220003 43 278 4.3 13.9 0.00 0.00 0.00 50 1016.8
20260506215504 43 318 7.8 13.9 0.00 0.00 0.00 50 1016.9
20260506215003 43 281 4.3 10.4 0.00 0.00 0.00 50 1017.0
20260506214507 43 311 3.5 11.3 0.00 0.00 0.00 50 1017.1
20260506214003 43 283 7.0 11.3 0.00 0.00 0.00 49 1017.0
20260506213502 43 336 2.6 9.6 0.00 0.00 0.00 51 1017.1
20260506213002 43 281 4.3 9.6 0.00 0.00 0.00 50 1017.1
20260506212503 43 294 1.7 9.6 0.00 0.00 0.00 50 1017.1
20260506212001 43 292 2.6 9.6 0.00 0.00 0.00 50 1017.1
20260506211501 42 351 4.3 11.3 0.00 0.00 0.00 50 1017.2
20260506211002 42 336 3.5 11.3 0.00 0.00 0.00 51 1017.3
20260506210502 42 285 6.1 11.3 0.00 0.00 0.00 51 1017.3
20260506210003 42 283 5.2 11.3 0.00 0.00 0.00 51 1017.3
20260506205601 42 266 5.2 13.9 0.00 0.00 0.00 51 1017.4
20260506205100 42 316 7.8 13.9 0.00 0.00 0.00 51 1017.3
20260506204602 42 35 2.6 10.4 0.00 0.00 0.00 51 1017.4
20260506204103 42 278 5.2 17.4 0.00 0.00 0.00 50 1017.5
20260506203600 42 307 9.6 17.4 0.00 0.00 0.00 50 1017.5
20260506203100 42 333 4.3 8.7 0.00 0.00 0.00 52 1017.5
20260506202559 42 248 3.5 13.0 0.00 0.00 0.00 51 1017.5
20260506202100 42 284 6.1 14.8 0.00 0.00 0.00 50 1017.6
20260506201559 43 283 7.8 14.8 0.00 0.00 0.00 51 1017.5
20260506201058 43 332 0.9 11.3 0.00 0.00 0.00 51 1017.5
20260506200558 42 332 3.5 16.5 0.00 0.00 0.00 52 1017.6
20260506200058 42 269 11.3 16.5 0.00 0.00 0.00 50 1017.6
20260506195558 43 315 4.3 12.2 0.00 0.00 0.00 49 1017.6
20260506195102 43 360 3.5 12.2 0.00 0.00 0.00 51 1017.7
20260506194601 43 262 1.7 12.2 0.00 0.00 0.00 53 1017.6
20260506194056 42 336 2.6 13.9 0.00 0.00 0.00 52 1017.6
20260506193554 41 277 6.1 12.2 0.00 0.00 0.00 52 1017.4
20260506193054 42 347 5.2 10.4 0.00 0.00 0.00 52 1017.8
20260506192553 42 15 3.5 13.0 0.00 0.00 0.00 54 1017.7
20260506192054 41 273 6.1 13.9 0.00 0.00 0.00 54 1017.7
20260506191552 41 260 7.0 16.5 0.00 0.00 0.00 52 1017.7
20260506191051 41 330 7.0 16.5 0.00 0.00 0.00 53 1017.7
20260506190550 41 318 1.7 12.2 0.00 0.00 0.00 54 1017.8
20260506190051 41 270 7.0 12.2 0.00 0.00 0.00 54 1017.8
20260506185550 40 274 2.6 8.7 0.00 0.00 0.00 53 1017.8
20260506185052 41 320 4.3 8.7 0.00 0.00 0.00 53 1017.8
20260506184553 41 314 4.3 8.7 0.00 0.00 0.00 53 1017.8
20260506184049 40 50 0.9 10.4 0.00 0.00 0.00 55 1017.9
20260506183549 40 294 0.9 11.3 0.00 0.00 0.00 55 1017.9
20260506183055 40 311 7.0 13.0 0.00 0.00 0.00 55 1017.9
20260506182548 40 307 5.2 13.0 0.00 0.00 0.00 55 1018.0
20260506182045 40 6 4.3 12.2 0.00 0.00 0.00 55 1018.0
20260506181611 40 298 5.2 11.3 0.00 0.00 0.00 55 1018.1
20260506181044 39 295 1.7 11.3 0.00 0.00 0.00 58 1018.1
20260506180544 40 312 7.0 11.3 0.00 0.00 0.00 55 1018.1
20260506180044 40 238 5.2 12.2 0.00 0.00 0.00 57 1018.1
20260506175544 39 342 5.2 13.9 0.00 0.00 0.00 56 1018.2
20260506175046 39 298 7.8 13.9 0.00 0.00 0.00 55 1018.1
20260506174543 39 340 3.5 7.8 0.00 0.00 0.00 56 1018.2
20260506174042 39 320 3.5 12.2 0.00 0.00 0.00 56 1018.2
20260506173543 39 290 7.0 12.2 0.00 0.00 0.00 57 1018.2
20260506173055 39 267 5.2 11.3 0.00 0.00 0.00 57 1018.2
20260506172542 39 301 3.5 11.3 0.00 0.00 0.00 58 1018.3
20260506172042 39 290 3.5 11.3 0.00 0.00 0.00 58 1018.3
20260506171540 39 323 4.3 11.3 0.00 0.00 0.00 58 1018.4
20260506171041 38 330 3.5 8.7 0.00 0.00 0.00 57 1018.4
20260506170540 39 311 3.5 10.4 0.00 0.00 0.00 57 1018.5
20260506170040 39 290 4.3 10.4 0.00 0.00 0.00 57 1018.5
20260506165537 39 9 1.7 7.0 0.00 0.00 0.00 58 1018.5
20260506165037 38 27 2.6 8.7 0.00 0.00 0.00 58 1018.5
20260506164539 38 328 3.5 8.7 0.00 0.00 0.00 58 1018.5
20260506164037 38 8 3.5 10.4 0.00 0.00 0.00 57 1018.6
20260506163537 38 285 3.5 12.2 0.00 0.00 0.00 58 1018.5
20260506163038 38 335 4.3 12.2 0.00 0.00 0.00 57 1018.6
20260506162534 38 44 2.6 8.7 0.00 0.00 0.00 57 1018.6
20260506162034 38 329 2.6 8.7 0.00 0.00 0.00 59 1018.6
20260506161532 38 255 3.5 10.4 0.00 0.00 0.00 58 1018.5
20260506161032 38 328 3.5 10.4 0.00 0.00 0.00 58 1018.5
20260506160532 38 278 3.5 8.7 0.00 0.00 0.00 59 1018.6
20260506160032 38 340 4.3 8.7 0.00 0.00 0.00 58 1018.6
20260506155532 38 63 2.6 7.8 0.00 0.00 0.00 58 1018.5
20260506155030 38 314 0.9 5.2 0.00 0.00 0.00 59 1018.6
20260506154529 38 8 1.7 9.6 0.00 0.00 0.00 59 1018.5
20260506154028 37 18 3.5 9.6 0.00 0.00 0.00 59 1018.5
20260506153527 37 16 2.6 8.7 0.00 0.00 0.00 60 1018.5
20260506153025 37 357 2.6 9.6 0.00 0.00 0.00 61 1018.5
20260506152526 37 325 4.3 9.6 0.00 0.00 0.00 60 1018.5
20260506152024 36 353 2.6 13.0 0.00 0.00 0.00 61 1018.5
20260506151524 36 321 5.2 13.0 0.00 0.00 0.00 60 1018.5
20260506151023 36 340 3.5 9.6 0.00 0.00 0.00 60 1018.4
20260506150523 36 311 2.6 9.6 0.00 0.00 0.00 61 1018.4
20260506150022 36 341 4.3 9.6 0.00 0.00 0.00 61 1018.5
20260506145521 36 311 2.6 7.0 0.00 0.00 0.00 62 1018.5
20260506145021 36 29 3.5 7.8 0.00 0.00 0.00 61 1018.4
20260506144522 36 330 2.6 7.8 0.00 0.00 0.00 62 1018.4
20260506144021 36 303 2.6 7.8 0.00 0.00 0.00 62 1018.5
20260506143520 36 26 0.0 7.8 0.00 0.00 0.00 63 1018.5
20260506143022 36 349 2.6 7.8 0.00 0.00 0.00 61 1018.5
20260506142519 36 352 1.7 9.6 0.00 0.00 0.00 62 1018.5
20260506142020 36 347 3.5 7.0 0.00 0.00 0.00 61 1018.5
20260506141519 36 47 0.9 7.0 0.00 0.00 0.00 63 1018.4
20260506141019 35 16 0.9 10.4 0.00 0.00 0.00 62 1018.5
20260506140518 35 41 3.5 10.4 0.00 0.00 0.00 62 1018.5
20260506140018 35 307 1.7 7.0 0.00 0.00 0.00 63 1018.4
20260506135516 35 339 2.6 7.0 0.00 0.00 0.00 62 1018.4
20260506135015 36 352 3.5 7.0 0.00 0.00 0.00 62 1018.3
20260506134514 36 20 0.9 6.1 0.00 0.00 0.00 63 1018.3
20260506134019 35 18 1.7 6.1 0.00 0.00 0.00 63 1018.3
20260506133513 35 57 0.9 6.1 0.00 0.00 0.00 63 1018.2
20260506133012 35 345 2.6 5.2 0.00 0.00 0.00 63 1018.2
20260506132513 35 15 2.6 5.2 0.00 0.00 0.00 64 1018.0
20260506132010 35 318 1.7 5.2 0.00 0.00 0.00 64 1018.0
20260506131509 35 335 2.6 5.2 0.00 0.00 0.00 64 1017.9
20260506131008 35 328 2.6 5.2 0.00 0.00 0.00 64 1017.9
20260506130507 35 6 0.9 7.0 0.00 0.00 0.00 66 1017.8
20260506130000 35 360 2.6 7.8 0.00 0.00 0.00 65 1017.7
20260506125559 35 340 3.5 7.8 0.00 0.00 0.00 65 1017.7
20260506125059 35 297 1.7 6.1 0.00 0.00 0.00 66 1017.6
20260506124601 35 341 1.7 7.0 0.00 0.00 0.00 66 1017.6
20260506124057 35 320 3.5 7.0 0.00 0.00 0.00 67 1017.4
20260506123558 34 329 0.9 7.0 0.00 0.00 0.00 68 1017.4
20260506122507 34 302 0.0 7.0 0.00 0.00 0.00 69 1017.4
20260506122044 34 4 0.9 7.0 0.00 0.00 0.00 69 1017.3
20260506121534 34 6 0.0 5.2 0.00 0.00 0.00 70 1017.2
20260506121039 34 9 0.9 5.2 0.00 0.00 0.00 70 1017.2
20260506120535 34 321 1.7 5.2 0.00 0.00 0.00 70 1017.2
20260506120039 33 352 0.9 5.2 0.00 0.00 0.00 71 1017.1
20260506115534 33 11 0.9 5.2 0.00 0.00 0.00 71 1017.0
20260506115030 33 341 0.9 3.5 0.00 0.00 0.00 72 1017.0
20260506114531 33 353 0.0 1.7 0.00 0.00 0.00 73 1017.0
20260506114030 33 320 0.0 3.5 0.00 0.00 0.00 73 1016.9
20260506113530 32 339 0.9 3.5 0.00 0.00 0.00 74 1016.9
20260506113038 32 349 0.0 2.6 0.00 0.00 0.00 74 1016.8
20260506112531 32 356 0.9 2.6 0.00 0.00 0.00 74 1016.7
20260506112033 32 315 0.0 3.5 0.00 0.00 0.00 75 1016.7
20260506111531 32 354 0.0 3.5 0.00 0.00 0.00 75 1016.6
20260506111029 32 8 0.9 2.6 0.00 0.00 0.00 75 1016.7
20260506110531 32 32 0.0 1.7 0.00 0.00 0.00 75 1016.8
20260506110029 32 354 0.0 2.6 0.00 0.00 0.00 75 1016.8
20260506105528 32 339 0.0 2.6 0.00 0.00 0.00 75 1016.8
20260506105030 31 353 0.0 3.5 0.00 0.00 0.00 76 1016.8
20260506104533 31 298 0.9 3.5 0.00 0.00 0.00 76 1016.8
20260506104026 31 283 0.0 4.3 0.00 0.00 0.00 76 1016.8
20260506103527 31 354 0.9 4.3 0.00 0.00 0.00 77 1016.7
20260506103127 31 349 0.0 3.5 0.00 0.00 0.00 77 1016.7
20260506102525 31 311 0.0 5.2 0.00 0.00 0.00 77 1016.7
20260506102025 31 305 0.9 5.2 0.00 0.00 0.00 77 1016.6
20260506101525 31 290 0.0 3.5 0.00 0.00 0.00 77 1016.6
20260506101023 31 301 0.9 4.3 0.00 0.00 0.00 77 1016.4
20260506100523 31 315 0.0 4.3 0.00 0.00 0.00 77 1016.5
20260506100022 31 340 0.0 2.6 0.00 0.00 0.00 77 1016.3
20260506095521 31 322 0.0 3.5 0.00 0.00 0.00 77 1016.4
20260506095021 31 311 0.0 3.5 0.00 0.00 0.00 78 1016.3
20260506094521 31 321 0.0 3.5 0.00 0.00 0.00 77 1016.3
20260506094020 31 317 0.0 3.5 0.00 0.00 0.00 78 1016.3
20260506093520 31 332 0.0 2.6 0.00 0.00 0.00 78 1016.3
20260506093020 31 338 0.0 2.6 0.00 0.00 0.00 78 1016.3
20260506092520 31 288 0.0 2.6 0.00 0.00 0.00 78 1016.3
20260506092020 31 312 0.0 2.6 0.00 0.00 0.00 78 1016.3
20260506091520 31 314 0.0 3.5 0.00 0.00 0.00 78 1016.4
20260506091019 31 307 0.9 2.6 0.00 0.00 0.00 78 1016.3
20260506090518 31 271 0.9 2.6 0.00 0.00 0.00 78 1016.3
20260506090022 31 305 0.9 2.6 0.00 0.00 0.00 78 1016.2
20260506085516 31 307 0.0 1.7 0.00 0.00 0.00 78 1016.2
20260506085016 31 295 0.0 1.7 0.00 0.00 0.00 78 1016.0
20260506084515 31 302 0.0 1.7 0.00 0.00 0.00 78 1016.0
20260506084015 31 309 0.0 0.9 0.00 0.00 0.00 78 1015.9
20260506083515 31 315 0.0 0.9 0.00 0.00 0.00 78 1015.8
20260506083014 31 301 0.0 0.9 0.00 0.00 0.00 77 1015.8
20260506082512 31 301 0.0 0.9 0.00 0.00 0.00 77 1015.8
20260506082012 31 305 0.0 1.7 0.00 0.00 0.00 76 1015.8
20260506081512 31 302 0.0 1.7 0.00 0.00 0.00 76 1015.8
20260506081015 32 291 0.0 2.6 0.00 0.00 0.00 77 1015.8
20260506080511 32 288 1.7 2.6 0.00 0.00 0.00 77 1015.9
20260506073505 32 299 0.9 2.6 0.00 0.00 0.00 75 1015.7
20260506073005 32 293 0.9 1.7 0.00 0.00 0.00 76 1015.6
20260506072504 32 280 0.9 1.7 0.00 0.00 0.00 74 1015.6
20260506072002 32 299 0.0 0.9 0.00 0.00 0.00 71 1015.6
20260506071502 32 336 0.0 0.9 0.00 0.00 0.00 70 1015.6
20260506071000 32 343 0.0 0.9 0.00 0.00 0.00 69 1015.5
20260506070602 32 349 0.0 0.9 0.00 0.00 0.00 68 1015.6
20260506070104 33 349 0.0 1.7 0.00 0.00 0.00 68 1015.6
20260506062055 33 23 0.0 1.7 0.00 0.00 0.00 65 1015.6
20260506061554 33 22 0.0 1.7 0.00 0.00 0.00 65 1015.5
20260506061054 33 25 0.0 1.7 0.00 0.00 0.00 66 1015.6